Probability
3 2 1 0 0 0 0 0 0 0 0 0 0 0 0 0 0 0 0 0 0 0 0 0 1 0 0 0 1 2 1 0 1 3 5 5 2 1 0 0 0 0 1 2 3 3 3 2 2
2 1 0 0 0 0 0 0 0 0 0 0 0 0 0 0 0 0 0 0 0 0 0 0 1 0 0 0 1 1 1 0 1 2 3 4 2 1 0 0 0 0 0 1 2 2 2 2 2
2 1 0 0 0 0 0 0 0 0 0 0 0 0 0 0 0 0 0 0 0 0 0 0 0 0 0 0 0 0 0 0 0 1 1 1 1 1 0 0 0 0 0 0 0 1 1 1 2
1 0 0 0 0 0 0 0 0 0 0 0 0 0 0 0 0 0 0 0 0 0 0 0 0 0 0 0 0 0 0 0 0 0 0 0 0 0 0 0 0 0 0 0 0 0 0 1 1
0 0 0 0 0 0 0 0 0 0 0 0 0 0 0 0 0 0 0 0 0 0 0 0 0 1 0 0 0 0 0 0 0 1 2 1 0 1 1 0 0 0 0 0 0 0 0 0 0
0 0 0 0 0 0 0 0 0 0 0 0 0 0 0 0 1 0 0 0 0 0 0 0 0 0 0 0 0 0 1 1 1 1 2 1 1 1 1 0 0 0 0 0 0 0 0 0 0
0 0 0 0 0 0 0 0 0 0 0 0 0 0 0 0 0 0 0 1 1 1 0 0 0 0 0 0 0 0 1 1 1 1 1 1 0 1 1 0 0 0 0 0 0 0 0 0 0
0 0 0 0 0 0 0 0 0 1 0 0 0 0 0 0 0 0 0 1 1 1 0 0 0 0 0 0 0 0 1 1 0 0 0 0 0 0 0 0 0 0 0 0 0 0 0 0 0
0 0 0 0 0 0 0 0 0 1 1 0 0 0 0 0 0 0 0 0 0 0 0 0 0 0 0 0 0 0 0 0 0 0 0 0 0 0 0 0 0 0 0 0 0 0 0 0 0
0 0 0 0 0 0 0 0 0 1 1 1 0 0 0 0 0 0 0 0 0 0 0 0 0 0 0 0 0 0 0 0 0 0 0 0 0 0 0 0 0 0 0 0 0 0 0 0 0
0 0 0 0 0 0 0 0 0 1 2 2 1 0 0 0 0 0 0 0 0 0 0 0 0 0 0 0 0 0 0 0 0 0 0 0 0 0 0 0 0 0 0 0 0 0 0 0 0
0 0 0 0 0 0 0 0 0 0 1 1 1 0 0 0 0 0 0 0 0 0 0 1 0 0 0 0 0 0 0 0 0 0 0 0 0 0 0 0 0 0 0 0 0 0 0 0 0
0 0 0 0 0 0 0 0 0 0 0 0 0 0 0 0 0 0 0 0 0 0 0 0 0 0 0 0 0 0 0 0 0 0 0 0 0 0 0 0 0 0 0 0 0 0 0 0 0
0 0 0 0 0 0 0 0 0 0 0 1 1 0 0 0 0 0 0 0 0 0 0 0 0 0 0 0 0 0 0 0 0 0 0 0 0 0 0 0 0 0 0 0 0 0 0 0 0
0 0 0 0 0 0 0 0 0 0 0 1 1 0 0 0 0 0 0 1 1 2 1 1 1 0 0 0 0 1 0 0 0 0 0 0 0 0 0 0 0 0 0 0 0 0 0 0 0
0 0 0 0 0 0 0 0 0 0 0 1 1 0 1 1 1 1 1 1 2 3 3 2 2 1 0 0 0 0 0 0 0 0 0 0 0 0 0 0 0 0 0 0 0 0 0 0 0
0 0 0 0 0 0 0 0 0 0 0 0 0 1 2 2 2 1 1 1 2 3 3 3 3 2 1 1 1 1 1 0 0 0 0 0 0 0 0 0 0 0 0 0 0 0 0 0 0
0 0 0 0 0 0 0 0 0 0 0 1 1 2 3 3 2 1 0 1 1 2 3 3 3 3 3 2 2 2 2 1 1 2 1 0 0 0 0 0 0 0 0 0 0 0 0 0 0
0 0 0 0 0 0 0 0 0 0 0 1 2 2 2 1 1 0 0 1 1 1 2 2 2 2 3 3 3 3 3 3 3 3 2 0 0 0 0 0 0 0 0 0 0 0 0 0 0
0 0 0 0 0 0 0 0 0 0 0 1 2 1 1 0 0 0 0 0 0 0 1 1 1 1 1 2 3 3 3 3 3 3 2 0 0 0 0 0 0 0 0 0 0 0 0 0 0
0 0 0 0 0 0 0 0 0 0 0 0 0 0 0 0 0 0 0 0 0 0 0 0 0 0 0 1 2 3 3 3 3 3 2 1 0 0 0 0 0 0 0 0 0 0 0 0 0
0 0 0 0 0 0 0 0 0 0 0 0 0 0 0 0 0 0 1 1 1 1 1 1 0 0 0 0 1 2 2 2 3 3 3 2 1 0 0 0 0 0 0 0 0 0 0 0 0
0 0 0 0 0 0 0 0 0 0 0 0 0 0 0 0 0 0 1 2 2 2 3 2 1 1 0 0 0 1 1 2 3 3 3 3 2 1 0 0 0 0 0 0 0 0 0 0 0
0 0 0 0 0 0 0 0 0 0 0 0 0 0 0 0 0 0 1 2 4 4 5 4 2 1 1 0 0 0 1 2 2 3 3 3 3 2 1 0 0 0 0 0 0 0 0 0 0
0 0 0 0 0 0 0 0 0 0 0 0 0 0 0 0 0 0 1 2 4 5 6 5 4 3 2 1 0 0 0 1 1 1 3 3 3 3 2 1 1 0 0 0 0 0 0 0 0
0 0 0 0 0 0 0 0 0 0 0 0 0 0 0 0 0 0 0 1 3 4 5 6 5 4 3 2 1 1 0 0 0 1 2 3 3 3 3 3 2 1 0 0 0 0 0 0 0
0 0 0 0 0 0 0 0 0 0 0 0 0 0 0 0 0 0 0 1 2 3 4 5 6 5 4 3 3 2 1 0 0 0 1 2 2 3 3 3 3 2 1 0 0 0 0 0 0
0 0 0 0 0 0 0 0 0 0 0 0 0 0 0 0 0 0 0 0 1 2 3 4 5 5 4 3 3 3 2 1 0 0 0 1 1 2 2 3 3 2 1 0 0 0 0 0 0
0 0 0 0 0 0 0 0 0 0 0 0 0 0 0 0 0 0 0 0 0 1 2 2 3 5 4 3 3 3 3 2 1 1 0 0 0 1 2 2 2 2 1 0 0 0 0 0 0
0 0 0 0 0 0 0 0 0 0 0 0 0 0 0 0 0 0 0 0 0 0 1 1 2 4 4 3 3 3 3 3 2 2 1 0 0 1 2 2 3 2 1 1 1 0 0 0 0
Wind_Speed
2 1 2 4 6 6 3 1 2 3 4 4 8 10 8 6 4 4 1 6 7 5 4 5 8 9 10 10 10 11 11 11 12 12 12 12 12 13 13 13 13 13 13 13 13 12 12 11 10
1 1 4 5 6 4 2 0 4 3 6 6 8 8 7 6 4 5 3 6 7 6 4 5 8 9 9 9 10 10 11 11 11 11 12 12 12 12 12 12 12 13 13 12 12 12 11 10 9
1 1 4 5 4 3 3 1 3 3 4 5 5 5 5 4 4 4 5 8 7 5 4 5 9 9 9 9 10 10 10 10 11 11 11 11 11 12 12 12 12 12 12 11 11 11 10 9 9
3 4 5 6 4 2 5 3 4 5 5 6 6 6 4 3 4 5 9 9 7 5 4 5 9 9 9 9 10 10 9 10 10 10 10 10 11 11 11 11 11 11 11 11 10 10 10 9 9
4 5 6 4 2 1 3 4 5 6 4 5 7 6 3 2 6 9 9 8 8 5 4 5 8 9 9 9 9 9 9 9 10 10 10 10 10 10 10 10 10 10 10 9 9 9 9 9 9
5 5 5 2 1 2 2 4 7 8 6 6 7 6 2 1 6 8 8 7 7 6 4 5 8 8 8 8 8 9 9 9 9 9 9 9 9 9 9 9 9 9 9 8 8 8 9 8 8
5 4 3 3 2 2 2 3 6 5 5 4 6 6 3 2 5 8 8 7 6 6 5 3 3 5 7 8 8 8 9 8 8 8 8 9 9 8 8 8 8 8 8 8 8 8 8 7 7
5 5 2 1 3 1 0 3 4 5 4 4 5 8 5 5 6 8 7 6 6 5 4 4 3 3 3 4 6 7 7 7 7 7 7 7 7 7 7 6 7 7 7 7 7 7 7 6 7
5 5 1 2 4 2 1 5 3 3 6 4 4 5 7 8 8 8 6 4 4 4 3 3 3 3 3 2 4 4 5 5 5 4 5 5 3 3 3 4 6 6 6 6 6 6 7 7 6
5 3 2 3 4 4 3 4 4 4 6 5 6 6 8 8 8 8 7 5 5 4 4 3 3 3 2 3 2 2 2 2 2 2 3 2 2 2 3 4 5 6 6 6 7 7 7 5 3
3 3 2 2 3 5 4 2 2 6 4 6 9 10 8 8 7 7 6 6 5 6 5 5 4 4 3 2 2 1 1 1 2 2 2 2 2 2 2 2 3 4 5 4 5 5 3 3 2
3 1 2 3 3 4 3 2 3 3 5 8 11 12 9 8 7 7 6 5 4 5 5 5 5 4 3 3 2 2 1 1 1 1 2 2 2 2 2 2 2 2 2 2 3 2 3 3 3
3 1 2 3 4 4 5 4 3 2 4 8 10 9 8 7 6 5 5 5 4 4 4 5 5 5 4 3 2 2 1 1 1 1 2 2 2 2 2 1 2 2 2 2 2 3 3 3 3
3 3 2 3 3 3 6 2 3 1 6 8 9 8 7 6 6 5 4 4 4 4 4 4 5 5 4 3 3 2 2 1 1 1 2 2 2 2 2 2 2 2 2 2 2 2 3 2 2
3 4 3 1 2 2 5 3 1 2 7 8 6 6 6 5 5 5 5 5 5 4 4 4 5 5 5 4 3 3 2 2 2 1 2 2 2 2 2 2 2 2 2 2 3 3 3 3 3
3 3 1 3 2 2 5 2 3 1 6 6 4 4 5 4 4 5 5 4 4 4 4 4 5 5 4 4 3 2 2 2 2 1 1 2 3 3 2 2 2 2 2 2 2 3 3 3 2
2 1 2 3 1 3 4 3 3 1 6 5 4 4 4 3 2 2 4 4 4 5 4 4 4 5 4 4 3 3 2 2 2 2 2 2 3 3 3 2 1 2 2 2 2 2 2 1 2
3 3 3 3 2 4 4 3 2 2 4 5 4 4 3 4 3 3 3 4 4 4 4 4 4 4 4 3 3 2 2 2 1 1 1 2 2 2 3 2 2 2 2 2 2 2 2 1 1
4 4 3 5 4 4 4 3 3 3 3 3 4 4 4 4 3 3 4 4 4 4 4 4 4 2 3 2 2 2 1 1 1 1 1 2 2 2 2 2 2 2 2 1 1 1 2 2 2
3 2 1 1 2 4 4 2 3 3 4 5 6 5 5 3 2 3 3 4 4 3 3 3 3 3 2 3 2 2 2 1 1 1 1 1 2 2 2 2 1 1 1 1 1 1 1 1 1
3 4 4 3 0 2 3 1 2 2 1 2 3 4 5 6 5 4 3 3 3 3 3 3 3 2 2 2 2 2 2 2 2 1 1 0 1 2 2 2 2 1 1 1 1 1 2 0 1
3 4 4 4 3 2 3 2 5 3 1 1 2 3 4 5 4 4 4 3 3 3 3 3 3 2 2 3 3 4 3 2 2 1 1 1 0 1 1 2 2 1 1 1 1 1 1 1 1
4 4 2 2 2 1 1 2 6 1 2 4 3 3 4 5 6 5 5 5 4 3 3 3 3 3 2 3 3 3 2 1 1 1 1 0 0 0 1 1 1 1 1 1 1 1 1 1 1
2 4 4 4 4 2 4 4 4 3 6 5 4 3 4 5 5 5 4 3 2 2 2 2 3 2 2 3 3 3 3 2 2 1 1 1 1 1 0 0 1 1 1 2 2 2 2 1 1
5 6 3 4 2 4 2 4 5 5 4 6 6 5 4 5 5 5 4 3 3 2 2 2 3 2 2 2 2 3 3 3 3 3 3 2 1 1 2 1 1 1 2 2 2 2 2 2 2
2 7 6 4 4 3 1 3 4 3 1 3 4 5 4 4 4 5 5 5 4 3 3 3 3 3 2 2 2 1 2 2 2 3 2 2 2 2 2 1 1 1 2 2 1 1 2 2 2
3 3 5 5 1 1 2 2 4 3 3 3 4 4 4 4 4 4 4 4 4 4 3 4 4 3 2 2 2 1 1 1 2 2 2 1 1 1 1 1 1 1 1 1 1 1 2 1 2
4 4 4 3 2 2 3 3 4 3 3 3 4 4 3 3 3 3 2 2 3 3 3 2 3 3 3 2 2 1 1 1 1 1 2 2 2 1 1 1 1 1 1 1 1 1 1 1 2
1 2 3 3 4 4 3 5 4 6 6 6 5 5 4 4 3 3 2 1 1 2 2 2 2 2 2 2 2 1 1 1 1 1 1 2 1 1 1 1 1 2 2 1 1 1 1 1 2
5 5 6 4 3 3 3 6 3 5 5 6 5 4 4 4 3 2 2 1 1 1 1 2 2 2 2 2 2 2 1 1 0 0 1 1 1 1 1 1 1 2 2 2 2 2 2 2 3
Wind_Direction
310 8 93 63 54 54 52 17 105 75 66 60 76 85 84 69 90 125 183 132 131 128 118 105 98 93 88 85 83 81 78 76 75 75 75 75 75 76 75 74 74 72 70 68 68 75 82 83 80
349 61 64 59 76 73 37 340 91 95 135 124 82 80 77 72 82 110 117 136 132 129 122 111 103 98 93 89 87 84 81 78 76 76 78 79 77 77 76 75 74 73 71 71 72 74 78 80 78
338 84 76 66 83 131 143 186 122 92 97 96 80 59 74 101 108 126 147 140 127 120 118 117 108 105 100 95 92 89 85 82 79 79 81 81 80 79 78 76 74 73 73 73 73 72 73 74 73
61 47 56 72 87 158 153 160 127 94 66 64 94 66 56 93 134 138 139 133 123 116 114 115 110 108 105 100 97 94 90 87 82 81 82 83 82 81 80 78 76 75 73 73 70 67 67 67 68
66 70 63 62 78 98 122 130 112 90 77 75 90 91 65 38 113 126 133 130 127 125 118 117 112 111 109 106 103 99 94 89 85 84 84 84 84 85 83 80 78 75 73 71 67 64 63 66 67
56 66 82 80 81 80 92 111 97 90 103 105 99 102 92 112 115 128 133 130 131 131 123 118 118 114 111 110 106 104 99 92 87 84 84 85 86 86 85 81 78 75 72 68 65 61 61 64 66
101 91 119 137 115 82 135 119 110 115 116 121 122 104 116 133 133 131 130 126 124 121 116 110 115 114 113 111 108 106 102 96 90 85 82 82 80 82 85 82 78 73 70 66 62 57 54 57 64
120 98 86 115 121 124 168 98 120 125 116 117 113 127 157 187 147 123 120 120 122 122 125 123 113 105 106 108 110 109 106 103 95 87 80 78 76 74 77 75 73 70 67 62 57 52 48 52 61
83 77 113 173 149 161 111 97 85 82 95 76 85 134 157 153 131 115 112 107 124 132 140 139 131 125 121 122 115 110 105 98 91 81 76 74 58 53 61 64 68 64 61 53 46 44 42 45 53
81 112 204 179 156 148 112 108 135 95 85 75 73 90 123 131 130 131 138 144 151 157 161 150 144 147 139 126 101 77 77 72 77 73 68 66 61 49 53 48 48 47 47 40 40 38 38 39 39
117 156 154 107 127 123 108 86 85 117 113 146 143 143 144 138 139 143 150 160 167 164 159 156 152 150 141 126 120 88 73 74 73 76 71 70 61 44 39 36 31 32 38 27 29 31 29 34 39
109 128 132 132 112 104 106 85 70 116 170 165 153 150 151 152 158 159 160 162 157 153 161 157 152 150 148 139 131 120 109 96 87 84 80 76 68 50 39 36 26 26 24 27 22 27 29 35 43
115 117 99 115 99 109 102 95 108 110 138 141 138 141 151 159 162 163 160 153 151 146 152 156 151 147 144 134 135 125 123 123 124 100 94 101 97 79 58 36 30 25 29 36 31 34 38 37 40
165 137 96 84 90 99 106 92 90 145 129 132 136 144 148 152 153 146 148 145 142 143 147 146 139 140 134 133 135 133 130 126 112 103 108 113 105 96 81 58 39 29 31 38 49 48 47 36 44
119 92 30 353 138 149 101 40 96 172 124 131 145 149 144 146 138 145 158 155 153 150 150 145 144 139 134 133 138 134 126 111 97 103 106 107 104 100 94 79 50 30 34 42 46 48 47 43 42
73 78 346 285 179 165 115 200 272 187 134 140 154 151 153 159 154 156 151 145 142 133 130 143 141 136 136 135 138 135 126 112 103 101 96 100 103 106 98 83 62 45 53 52 51 41 41 38 34
47 149 218 274 244 152 136 194 262 201 136 142 154 159 155 143 124 148 153 145 137 136 132 123 125 133 140 141 136 127 118 108 100 87 84 96 99 105 103 95 71 66 62 49 52 39 43 43 26
205 194 205 216 232 125 135 197 240 202 142 158 164 162 155 150 171 157 134 132 131 123 118 114 112 127 134 125 109 93 87 84 82 87 87 99 101 104 101 95 77 71 66 45 45 41 28 35 11
169 164 203 224 199 139 159 194 216 196 151 161 160 161 166 175 174 133 125 121 116 102 103 110 112 117 125 127 132 127 131 126 106 99 106 107 104 105 106 93 83 76 84 78 69 57 38 17 16
159 158 215 273 175 149 163 206 228 195 185 180 172 170 172 163 123 117 114 113 115 120 125 125 134 141 147 151 161 154 152 153 148 131 109 124 124 132 124 115 112 103 96 72 53 58 59 10 28
192 180 201 200 69 71 125 315 281 250 171 154 169 166 169 167 162 156 137 137 134 137 155 155 163 149 138 131 110 92 73 54 42 32 23 261 143 140 133 137 134 136 136 155 164 121 120 153 324
226 218 195 171 137 234 168 241 271 234 214 198 198 172 173 174 164 158 151 150 162 176 168 163 160 144 131 127 130 136 139 155 201 197 216 289 156 146 143 144 145 152 158 167 191 153 162 149 249
212 216 191 170 157 215 207 167 279 210 229 239 222 191 175 171 164 165 166 170 171 172 159 157 146 135 130 127 142 146 142 168 161 138 156 264 306 144 146 155 158 173 182 195 188 164 184 175 184
139 59 36 48 78 266 226 166 270 228 213 211 213 192 175 167 164 167 166 157 151 140 132 135 127 123 127 133 141 151 161 158 136 157 194 229 278 295 296 157 180 197 203 212 207 197 201 205 202
81 84 35 359 3 254 206 154 244 247 216 189 181 179 173 160 156 155 150 151 154 148 148 147 137 129 126 130 144 163 174 171 175 189 197 196 219 248 256 228 228 218 224 229 211 199 223 213 213
174 139 155 195 223 273 344 203 255 282 207 149 142 143 142 145 151 157 165 168 171 165 158 158 157 153 146 151 175 160 166 172 196 199 189 199 213 229 235 223 234 243 242 248 226 223 232 223 228
148 179 172 148 209 256 277 282 312 19 66 99 115 117 128 145 155 161 164 170 176 173 174 175 167 160 161 168 165 152 168 181 208 207 193 203 224 233 224 216 223 247 252 251 220 237 251 246 243
154 149 97 121 168 245 277 250 236 229 197 157 140 144 143 131 141 144 146 165 181 177 170 160 167 177 179 174 179 158 187 200 197 178 201 207 222 232 228 242 232 251 261 259 224 239 252 237 255
137 124 123 137 163 166 225 260 223 194 189 181 180 169 158 150 157 160 147 140 138 134 144 155 160 161 164 177 181 154 161 168 152 169 228 219 202 205 214 230 226 242 250 252 231 260 256 243 265
176 183 152 162 224 181 183 261 275 186 190 174 173 171 167 160 153 152 137 102 77 92 124 161 172 184 195 190 175 182 178 139 115 244 268 252 211 213 215 219 231 253 253 242 231 252 261 249 253